FW7253 Weather Reports


Display with metric or nautical units.
time (UTC)temp
F
wind
direction
speed
MPH
gust
MPH
rain 1hr
in
rain 24hr
in
rain mn
in
humidity
%
barometer
mb
20260509015036 40 0 0.0 0.0 0.00 0.00 0.00 86 1024.5
20260509014540 39 0 0.0 0.0 0.00 0.00 0.00 86 1024.6
20260509014035 39 0 0.0 0.0 0.00 0.00 0.00 86 1024.7
20260509013534 39 0 0.0 0.0 0.00 0.00 0.00 85 1024.7
20260509013048 40 0 0.0 0.0 0.00 0.00 0.00 85 1024.6
20260509012535 40 0 0.0 0.0 0.00 0.00 0.00 85 1024.6
20260509012034 39 0 0.0 0.0 0.00 0.00 0.00 85 1024.6
20260509011546 39 0 0.0 0.0 0.00 0.00 0.00 84 1024.6
20260509011036 40 0 0.0 0.0 0.00 0.00 0.00 84 1024.6
20260509010533 40 0 0.0 0.0 0.00 0.00 0.00 82 1024.7
20260509010044 40 0 0.0 0.0 0.00 0.00 0.00 82 1024.6
20260509005536 41 0 0.0 0.0 0.00 0.00 0.00 81 1024.7
20260509005033 41 0 0.0 0.0 0.00 0.00 0.00 81 1024.6
20260509004556 41 0 0.0 0.0 0.00 0.00 0.00 81 1024.7
20260509004034 41 0 0.0 0.0 0.00 0.00 0.00 81 1024.6
20260509003534 41 0 0.0 0.0 0.00 0.00 0.00 80 1024.8
20260509003041 41 0 0.0 0.0 0.00 0.00 0.00 80 1024.7
20260509002536 41 0 0.0 0.0 0.00 0.00 0.00 80 1024.7
20260509002034 41 0 0.0 0.0 0.00 0.00 0.00 79 1024.7
20260509001551 41 0 0.0 0.0 0.00 0.00 0.00 79 1024.8
20260509001033 41 0 0.0 0.0 0.00 0.00 0.00 79 1024.7
20260509000535 41 0 0.0 0.0 0.00 0.00 0.00 79 1024.7
20260509000047 41 0 0.0 0.0 0.00 0.00 0.00 79 1024.7
20260508235534 41 0 0.0 0.0 0.00 0.00 0.00 79 1024.7
20260508235037 41 0 0.0 0.0 0.00 0.00 0.00 79 1024.7
20260508234544 41 0 0.0 0.0 0.00 0.00 0.00 79 1024.7
20260508234033 41 0 0.0 0.0 0.00 0.00 0.00 78 1024.7
20260508233533 41 0 0.0 0.0 0.00 0.00 0.00 79 1024.7
20260508233044 41 0 0.0 0.0 0.00 0.00 0.00 78 1024.7
20260508232534 41 0 0.0 1.0 0.00 0.00 0.00 79 1024.7
20260508232034 41 0 0.0 1.0 0.00 0.00 0.00 79 1024.8
20260508231545 40 0 0.0 0.0 0.00 0.00 0.00 79 1024.6
20260508231034 40 0 0.0 0.0 0.00 0.00 0.00 78 1024.7
20260508230533 41 0 0.0 0.0 0.00 0.00 0.00 77 1024.7
20260508230045 41 0 0.0 0.0 0.00 0.00 0.00 76 1024.6
20260508225534 41 0 0.0 0.0 0.00 0.00 0.00 76 1024.7
20260508225034 42 0 0.0 0.0 0.00 0.00 0.00 75 1024.7
20260508224550 42 0 0.0 0.0 0.00 0.00 0.00 76 1024.6
20260508224034 41 0 0.0 0.0 0.00 0.00 0.00 76 1024.6
20260508223534 41 0 0.0 0.0 0.00 0.00 0.00 76 1024.6
20260508223050 41 0 0.0 0.0 0.00 0.00 0.00 75 1024.6
20260508222534 42 0 0.0 0.0 0.00 0.00 0.00 75 1024.7
20260508222033 42 0 0.0 1.0 0.00 0.00 0.00 74 1024.5
20260508221544 42 0 0.0 2.0 0.00 0.00 0.00 75 1024.6
20260508221034 42 118 1.0 2.0 0.00 0.00 0.00 75 1024.6
20260508220534 42 101 1.0 2.0 0.00 0.00 0.00 75 1024.6
20260508220040 43 152 0.0 2.0 0.00 0.00 0.00 71 1024.6
20260508215534 45 106 0.0 1.0 0.00 0.00 0.00 66 1024.6
20260508215034 46 86 1.0 3.0 0.00 0.00 0.00 63 1024.6
20260508214555 46 0 0.0 3.0 0.00 0.00 0.00 63 1024.5
20260508214036 46 0 0.0 2.0 0.00 0.00 0.00 63 1024.5
20260508213533 46 0 0.0 2.0 0.00 0.00 0.00 62 1024.5
20260508213045 46 91 0.0 2.0 0.00 0.00 0.00 63 1024.5
20260508212534 46 89 0.0 1.0 0.00 0.00 0.00 62 1024.6
20260508212035 47 0 0.0 1.0 0.00 0.00 0.00 61 1024.5
20260508211541 47 322 0.0 1.0 0.00 0.00 0.00 62 1024.4
20260508211034 47 0 0.0 0.0 0.00 0.00 0.00 61 1024.5
20260508210534 47 0 0.0 2.0 0.00 0.00 0.00 61 1024.6
20260508210054 47 0 0.0 2.0 0.00 0.00 0.00 60 1024.5
20260508205533 47 0 0.0 1.0 0.00 0.00 0.00 60 1024.5
20260508205034 47 122 0.0 1.0 0.00 0.00 0.00 61 1024.4
20260508204544 47 0 0.0 1.0 0.00 0.00 0.00 61 1024.5
20260508204033 47 0 0.0 0.0 0.00 0.00 0.00 60 1024.5
20260508203533 48 0 0.0 0.0 0.00 0.00 0.00 60 1024.5
20260508203045 48 0 0.0 0.0 0.00 0.00 0.00 60 1024.4
20260508202535 47 0 0.0 0.0 0.00 0.00 0.00 60 1024.5
20260508202034 48 0 0.0 0.0 0.00 0.00 0.00 60 1024.4
20260508201541 48 0 0.0 1.0 0.00 0.00 0.00 61 1024.3
20260508201033 48 0 0.0 1.0 0.00 0.00 0.00 59 1024.4
20260508200534 49 0 0.0 1.0 0.00 0.00 0.00 59 1024.3
20260508200043 49 0 0.0 1.0 0.00 0.00 0.00 59 1024.4
20260508195533 49 0 0.0 1.0 0.00 0.00 0.00 59 1024.2
20260508195033 50 0 0.0 1.0 0.00 0.00 0.00 57 1024.2
20260508194546 50 108 0.0 1.0 0.00 0.00 0.00 57 1024.3
20260508194035 51 0 0.0 4.0 0.00 0.00 0.00 56 1024.1
20260508193533 51 126 1.0 4.0 0.00 0.00 0.00 55 1024.1
20260508193058 51 115 2.0 4.0 0.00 0.00 0.00 56 1024.1
20260508192533 52 114 1.0 3.0 0.00 0.00 0.00 54 1024.2
20260508192038 52 135 1.0 2.0 0.00 0.00 0.00 54 1024.1
20260508191550 52 156 0.0 2.0 0.00 0.00 0.00 52 1024.1
20260508191034 52 205 0.0 4.0 0.00 0.00 0.00 52 1024.1
20260508190533 52 218 2.0 5.0 0.00 0.00 0.00 52 1024.0
20260508190055 52 240 2.0 7.0 0.00 0.00 0.00 52 1023.8
20260508185539 53 230 4.0 7.0 0.00 0.00 0.00 51 1023.7
20260508185034 53 238 4.0 10.0 0.00 0.00 0.00 49 1023.9
20260508184539 54 224 6.0 10.0 0.00 0.00 0.00 48 1023.9
20260508184034 54 230 4.0 8.0 0.00 0.00 0.00 48 1023.8
20260508183533 54 214 4.0 7.0 0.00 0.00 0.00 49 1023.8
20260508183047 54 231 4.0 8.0 0.00 0.00 0.00 48 1023.8
20260508182534 55 232 5.0 12.0 0.00 0.00 0.00 47 1023.8
20260508182034 55 221 6.0 12.0 0.00 0.00 0.00 47 1023.9
20260508181544 55 253 6.0 12.0 0.00 0.00 0.00 46 1023.8
20260508181037 56 153 4.0 7.0 0.00 0.00 0.00 47 1023.8
20260508180533 56 231 5.0 11.0 0.00 0.00 0.00 46 1023.7
20260508180057 56 203 7.0 11.0 0.00 0.00 0.00 45 1023.6
20260508175533 56 208 5.0 12.0 0.00 0.00 0.00 45 1023.7
20260508175033 56 216 7.0 12.0 0.00 0.00 0.00 45 1023.7
20260508174559 56 226 8.0 15.0 0.00 0.00 0.00 46 1023.6
20260508174033 57 192 11.0 15.0 0.00 0.00 0.00 45 1023.6
20260508173533 57 191 7.0 13.0 0.00 0.00 0.00 45 1023.5
20260508173038 57 229 8.0 13.0 0.00 0.00 0.00 47 1023.6
20260508172534 57 207 7.0 13.0 0.00 0.00 0.00 46 1023.5
20260508172034 57 221 6.0 14.0 0.00 0.00 0.00 45 1023.4
20260508171545 57 221 10.0 14.0 0.00 0.00 0.00 45 1023.4
20260508171034 58 221 11.0 14.0 0.00 0.00 0.00 45 1023.4
20260508170534 58 223 8.0 14.0 0.00 0.00 0.00 45 1023.5
20260508170047 58 224 9.0 14.0 0.00 0.00 0.00 43 1023.3
20260508165533 58 244 11.0 16.0 0.00 0.00 0.00 44 1023.4
20260508165033 58 181 10.0 17.0 0.00 0.00 0.00 44 1023.4
20260508164550 58 212 10.0 17.0 0.00 0.00 0.00 44 1023.5
20260508164033 57 222 6.0 15.0 0.00 0.00 0.00 45 1023.4
20260508163537 58 91 5.0 11.0 0.00 0.00 0.00 45 1023.4
20260508163044 58 211 5.0 13.0 0.00 0.00 0.00 44 1023.3
20260508162533 59 241 10.0 16.0 0.00 0.00 0.00 43 1023.4
20260508162033 58 202 10.0 16.0 0.00 0.00 0.00 41 1023.2
20260508161540 59 224 8.0 17.0 0.00 0.00 0.00 43 1023.4
20260508161033 58 229 11.0 17.0 0.00 0.00 0.00 42 1023.4
20260508160533 58 214 7.0 13.0 0.00 0.00 0.00 44 1023.5
20260508160040 58 231 8.0 13.0 0.00 0.00 0.00 44 1023.5
20260508155534 58 61 6.0 13.0 0.00 0.00 0.00 43 1023.4
20260508155034 59 224 7.0 13.0 0.00 0.00 0.00 45 1023.4
20260508154538 58 215 9.0 13.0 0.00 0.00 0.00 44 1023.4
20260508154033 58 229 8.0 13.0 0.00 0.00 0.00 44 1023.5
20260508153534 58 205 7.0 12.0 0.00 0.00 0.00 45 1023.4
20260508153054 58 185 6.0 12.0 0.00 0.00 0.00 44 1023.4
20260508152534 58 207 7.0 17.0 0.00 0.00 0.00 44 1023.5
20260508152033 59 113 10.0 17.0 0.00 0.00 0.00 43 1023.5
20260508151545 59 226 11.0 16.0 0.00 0.00 0.00 43 1023.5
20260508151034 59 218 10.0 16.0 0.00 0.00 0.00 42 1023.6
20260508150533 59 244 11.0 15.0 0.00 0.00 0.00 42 1023.5
20260508150045 59 238 9.0 17.0 0.00 0.00 0.00 43 1023.5
20260508145533 59 204 8.0 19.0 0.00 0.00 0.00 43 1023.5
20260508145033 59 236 12.0 21.0 0.00 0.00 0.00 42 1023.5
20260508144550 59 227 14.0 21.0 0.00 0.00 0.00 41 1023.6
20260508144033 59 207 9.0 20.0 0.00 0.00 0.00 43 1023.6
20260508143534 59 169 12.0 20.0 0.00 0.00 0.00 41 1023.6
20260508143043 59 229 10.0 18.0 0.00 0.00 0.00 41 1023.5
20260508142534 60 211 11.0 16.0 0.00 0.00 0.00 41 1023.7
20260508142033 60 225 10.0 19.0 0.00 0.00 0.00 42 1023.6
20260508141600 59 176 12.0 20.0 0.00 0.00 0.00 39 1023.6
20260508141034 59 176 10.0 20.0 0.00 0.00 0.00 40 1023.7
20260508140533 60 225 15.0 20.0 0.00 0.00 0.00 40 1023.7
20260508140039 60 220 12.0 17.0 0.00 0.00 0.00 41 1023.6
20260508135534 60 231 12.0 18.0 0.00 0.00 0.00 41 1023.7
20260508135034 60 214 12.0 20.0 0.00 0.00 0.00 43 1023.7
20260508134545 60 219 12.0 20.0 0.00 0.00 0.00 41 1023.8
20260508134034 60 241 12.0 19.0 0.00 0.00 0.00 43 1023.8
20260508133534 59 231 13.0 19.0 0.00 0.00 0.00 40 1023.9
20260508133045 60 250 14.0 19.0 0.00 0.00 0.00 41 1023.9
20260508132535 60 166 10.0 19.0 0.00 0.00 0.00 41 1023.8
20260508132034 59 197 11.0 21.0 0.00 0.00 0.00 42 1023.8
20260508131556 59 221 10.0 21.0 0.00 0.00 0.00 41 1024.0
20260508131034 59 197 9.0 18.0 0.00 0.00 0.00 42 1024.0
20260508130535 59 212 9.0 18.0 0.00 0.00 0.00 41 1024.0
20260508130042 59 229 10.0 19.0 0.00 0.00 0.00 42 1023.9
20260508125533 59 143 9.0 19.0 0.00 0.00 0.00 42 1023.9
20260508125034 59 207 11.0 19.0 0.00 0.00 0.00 40 1024.0
20260508124539 59 229 13.0 21.0 0.00 0.00 0.00 41 1023.9
20260508124033 59 238 12.0 21.0 0.00 0.00 0.00 41 1023.9
20260508123534 59 212 13.0 21.0 0.00 0.00 0.00 42 1024.0
20260508123056 59 214 12.0 19.0 0.00 0.00 0.00 42 1023.8
20260508122534 60 220 10.0 17.0 0.00 0.00 0.00 40 1024.1
20260508122033 60 217 7.0 15.0 0.00 0.00 0.00 41 1023.8
20260508121548 59 222 6.0 17.0 0.00 0.00 0.00 42 1023.8
20260508121034 59 209 10.0 17.0 0.00 0.00 0.00 42 1023.9
20260508120533 59 226 9.0 17.0 0.00 0.00 0.00 42 1023.7
20260508120104 59 202 8.0 17.0 0.00 0.00 0.00 42 1023.7
20260508115534 60 219 10.0 17.0 0.00 0.00 0.00 43 1023.8
20260508115033 60 246 10.0 17.0 0.00 0.00 0.00 42 1023.8
20260508114555 59 224 9.0 16.0 0.00 0.00 0.00 42 1023.8
20260508114037 60 228 10.0 16.0 0.00 0.00 0.00 43 1023.7
20260508113558 60 202 6.0 15.0 0.00 0.00 0.00 45 1023.7
20260508113100 60 184 7.0 15.0 0.00 0.00 0.00 42 1023.7
20260508112534 60 193 9.0 15.0 0.00 0.00 0.00 42 1023.7
20260508112033 60 233 8.0 15.0 0.00 0.00 0.00 44 1023.8
20260508111541 59 231 8.0 15.0 0.00 0.00 0.00 44 1023.8
20260508111033 59 80 6.0 13.0 0.00 0.00 0.00 47 1023.6
20260508110534 58 115 6.0 18.0 0.00 0.00 0.00 44 1023.4
20260508110038 58 220 8.0 18.0 0.00 0.00 0.00 47 1023.7
20260508105534 58 240 9.0 17.0 0.00 0.00 0.00 48 1023.7
20260508105034 58 207 9.0 14.0 0.00 0.00 0.00 46 1023.7
20260508104547 58 219 9.0 14.0 0.00 0.00 0.00 48 1023.5
20260508104033 57 248 9.0 14.0 0.00 0.00 0.00 48 1023.6
20260508103533 58 221 9.0 13.0 0.00 0.00 0.00 49 1023.4
20260508103053 57 223 8.0 13.0 0.00 0.00 0.00 49 1023.6
20260508102533 56 210 8.0 14.0 0.00 0.00 0.00 51 1023.7
20260508102033 56 188 6.0 14.0 0.00 0.00 0.00 51 1023.5
20260508101551 57 100 7.0 12.0 0.00 0.00 0.00 52 1023.5
20260508101034 56 186 7.0 12.0 0.00 0.00 0.00 50 1023.6
20260508100533 58 214 7.0 11.0 0.00 0.00 0.00 50 1023.5
20260508100040 58 103 7.0 16.0 0.00 0.00 0.00 52 1023.5
20260508095533 58 181 6.0 16.0 0.00 0.00 0.00 50 1023.5
20260508095033 57 214 11.0 15.0 0.00 0.00 0.00 49 1023.6
20260508094540 57 224 6.0 13.0 0.00 0.00 0.00 52 1023.6
20260508094033 56 113 5.0 11.0 0.00 0.00 0.00 53 1023.6
20260508093536 57 126 7.0 14.0 0.00 0.00 0.00 53 1023.7
20260508093046 56 179 6.0 14.0 0.00 0.00 0.00 51 1023.7
20260508092535 56 124 6.0 13.0 0.00 0.00 0.00 53 1023.5
20260508092033 56 160 5.0 13.0 0.00 0.00 0.00 54 1023.7
20260508091545 55 226 6.0 13.0 0.00 0.00 0.00 52 1023.7
20260508091033 55 221 6.0 12.0 0.00 0.00 0.00 51 1023.7
20260508090533 55 134 5.0 12.0 0.00 0.00 0.00 51 1023.7
20260508090050 55 181 5.0 12.0 0.00 0.00 0.00 50 1023.8
20260508085534 55 115 4.0 13.0 0.00 0.00 0.00 52 1023.7
20260508085033 54 162 5.0 13.0 0.00 0.00 0.00 51 1023.8
20260508084539 55 147 7.0 13.0 0.00 0.00 0.00 52 1023.7
20260508084034 54 95 3.0 12.0 0.00 0.00 0.00 55 1023.6
20260508083532 53 173 4.0 12.0 0.00 0.00 0.00 57 1023.8
20260508083149 53 107 3.0 9.0 0.00 0.00 0.00 56 1023.7
20260508082536 52 173 3.0 10.0 0.00 0.00 0.00 58 1023.9
20260508082034 52 90 4.0 10.0 0.00 0.00 0.00 59 1023.8
20260508081548 52 109 3.0 10.0 0.00 0.00 0.00 58 1023.7
20260508081033 52 169 3.0 9.0 0.00 0.00 0.00 59 1023.8
20260508080535 52 222 4.0 9.0 0.00 0.00 0.00 59 1023.7
20260508080048 51 225 3.0 9.0 0.00 0.00 0.00 57 1023.7
20260508075534 51 202 3.0 9.0 0.00 0.00 0.00 57 1023.7
20260508075033 51 122 4.0 9.0 0.00 0.00 0.00 58 1023.7
20260508074547 50 154 3.0 7.0 0.00 0.00 0.00 60 1023.7
20260508074035 50 124 3.0 7.0 0.00 0.00 0.00 60 1023.6
20260508073534 50 104 2.0 6.0 0.00 0.00 0.00 64 1023.6
20260508073045 49 89 2.0 7.0 0.00 0.00 0.00 65 1023.6
20260508072534 48 89 3.0 7.0 0.00 0.00 0.00 67 1023.7
20260508072034 47 174 2.0 6.0 0.00 0.00 0.00 68 1023.7
20260508071541 47 90 1.0 4.0 0.00 0.00 0.00 68 1023.6
20260508071033 46 148 0.0 3.0 0.00 0.00 0.00 68 1023.6
20260508070534 46 0 2.0 3.0 0.00 0.00 0.00 67 1023.6
20260508070040 45 222 2.0 3.0 0.00 0.00 0.00 68 1023.5
20260508065533 45 0 1.0 3.0 0.00 0.00 0.00 68 1023.5
20260508065035 44 0 0.0 1.0 0.00 0.00 0.00 65 1023.6
20260508064542 43 0 0.0 1.0 0.00 0.00 0.00 62 1023.6
20260508064033 42 0 0.0 1.0 0.00 0.00 0.00 60 1023.4
20260508063533 42 219 1.0 1.0 0.00 0.00 0.00 58 1023.4
20260508063056 42 209 0.0 1.0 0.00 0.00 0.00 60 1023.5
20260508062533 41 0 0.0 2.0 0.00 0.00 0.00 63 1023.5
20260508062033 41 280 0.0 2.0 0.00 0.00 0.00 63 1023.3
20260508061548 40 294 1.0 2.0 0.00 0.00 0.00 63 1023.3
20260508061034 39 287 0.0 1.0 0.00 0.00 0.00 68 1023.1
20260508060533 39 0 0.0 0.0 0.00 0.00 0.00 72 1023.3
20260508060046 38 0 0.0 0.0 0.00 0.00 0.00 76 1023.1
20260508055533 37 0 0.0 0.0 0.00 0.00 0.00 77 1023.1
20260508055033 37 0 0.0 0.0 0.00 0.00 0.00 78 1023.1
20260508054544 35 0 0.0 0.0 0.00 0.00 0.00 79 1023.0
20260508054033 35 0 0.0 0.0 0.00 0.00 0.00 79 1023.0
20260508053533 34 0 0.0 0.0 0.00 0.00 0.00 80 1022.9
20260508053042 34 0 0.0 0.0 0.00 0.00 0.00 80 1022.9
20260508052533 33 0 0.0 0.0 0.00 0.00 0.00 83 1023.0
20260508052032 33 0 0.0 0.0 0.00 0.00 0.00 85 1023.0
20260508051543 32 0 0.0 0.0 0.00 0.00 0.00 85 1023.0
20260508051033 32 0 0.0 0.0 0.00 0.00 0.00 86 1022.9
20260508050533 32 0 0.0 1.0 0.00 0.00 0.00 86 1022.9
20260508050048 31 0 0.0 1.0 0.00 0.00 0.00 87 1022.8
20260508045532 30 0 0.0 0.0 0.00 0.00 0.00 86 1022.8
20260508045032 30 0 0.0 0.0 0.00 0.00 0.00 86 1022.7
20260508044545 30 0 0.0 0.0 0.00 0.00 0.00 86 1022.7
20260508044032 30 0 0.0 0.0 0.00 0.00 0.00 86 1022.6
20260508043533 30 0 0.0 0.0 0.00 0.00 0.00 86 1022.4
20260508043056 30 0 0.0 0.0 0.00 0.00 0.00 85 1022.5
20260508042533 29 0 0.0 0.0 0.00 0.00 0.00 85 1022.4
20260508042035 29 0 0.0 0.0 0.00 0.00 0.00 85 1022.4
20260508041550 29 0 0.0 0.0 0.00 0.00 0.00 85 1022.4
20260508041035 29 0 0.0 0.0 0.00 0.00 0.00 84 1022.3
20260508040533 29 0 0.0 0.0 0.00 0.00 0.00 84 1022.3
20260508040042 29 0 0.0 0.0 0.00 0.00 0.00 84 1022.3
20260508035533 29 0 0.0 0.0 0.00 0.00 0.00 84 1022.2
20260508035033 29 0 0.0 0.0 0.00 0.00 0.00 85 1022.2
20260508034548 29 0 0.0 0.0 0.00 0.00 0.00 86 1022.2
20260508034032 29 0 0.0 0.0 0.00 0.00 0.00 87 1022.2
20260508033532 29 0 0.0 0.0 0.00 0.00 0.00 87 1022.1
20260508033039 29 0 0.0 0.0 0.00 0.00 0.00 87 1022.1
20260508032533 29 0 0.0 0.0 0.00 0.00 0.00 87 1022.0
20260508032035 29 0 0.0 0.0 0.00 0.00 0.00 87 1022.1
20260508031544 29 0 0.0 0.0 0.00 0.00 0.00 87 1022.1
20260508031033 29 0 0.0 0.0 0.00 0.00 0.00 87 1022.1
20260508030534 29 0 0.0 0.0 0.00 0.00 0.00 86 1022.2
20260508030045 29 0 0.0 0.0 0.00 0.00 0.00 86 1022.1
20260508025533 28 0 0.0 0.0 0.00 0.00 0.00 85 1022.0
20260508025034 29 0 0.0 0.0 0.00 0.00 0.00 85 1022.1
20260508024541 29 0 0.0 0.0 0.00 0.00 0.00 86 1022.0
20260508024033 28 0 0.0 0.0 0.00 0.00 0.00 85 1021.9
20260508023533 28 0 0.0 0.0 0.00 0.00 0.00 85 1021.9
20260508023038 28 0 0.0 0.0 0.00 0.00 0.00 84 1021.9
20260508022533 28 0 0.0 0.0 0.00 0.00 0.00 85 1021.8
20260508022033 29 0 0.0 0.0 0.00 0.00 0.00 86 1021.8
20260508021551 29 0 0.0 0.0 0.00 0.00 0.00 86 1021.9
20260508021032 29 0 0.0 0.0 0.00 0.00 0.00 86 1021.8
20260508020532 28 0 0.0 0.0 0.00 0.00 0.00 86 1021.8
20260508020049 28 0 0.0 0.0 0.00 0.00 0.00 85 1021.8
20260508015532 29 0 0.0 0.0 0.00 0.00 0.00 85 1021.8